TimeEST,TemperatureF,Dew PointF,Humidity,Sea Level PressureIn,VisibilityMPH,Wind Direction,Wind SpeedMPH,Gust SpeedMPH,PrecipitationIn,Events,Conditions,WindDirDegrees,DateUTC
1:53 AM,35.1,28.0,76,29.88,10.0,ESE,4.6,-,N/A,,Clear,120,2013-02-08 06:53:00
2:53 AM,36.0,28.9,76,29.86,10.0,Calm,Calm,-,N/A,,Partly Cloudy,0,2013-02-08 07:53:00
3:53 AM,37.9,30.9,76,29.83,10.0,SE,3.5,-,N/A,,Clear,130,2013-02-08 08:53:00
4:53 AM,39.9,33.1,77,29.81,10.0,SSE,5.8,-,N/A,,Mostly Cloudy,150,2013-02-08 09:53:00
5:53 AM,42.1,33.1,70,29.79,10.0,South,5.8,-,N/A,,Overcast,170,2013-02-08 10:53:00
6:06 AM,42.8,33.8,70,29.77,10.0,South,5.8,-,0.00,Rain,Light Rain,170,2013-02-08 11:06:00
6:53 AM,41.0,35.1,79,29.80,10.0,South,5.8,-,0.01,Rain,Light Rain,190,2013-02-08 11:53:00
7:53 AM,39.9,36.0,86,29.81,6.0,South,4.6,-,0.05,Rain,Light Rain,190,2013-02-08 12:53:00
8:39 AM,39.2,35.6,87,29.80,6.0,Variable,4.6,-,0.04,Rain,Light Rain,0,2013-02-08 13:39:00
8:53 AM,39.0,36.0,89,29.83,5.0,West,5.8,-,0.05,Rain,Light Rain,280,2013-02-08 13:53:00
9:02 AM,39.2,35.6,87,29.82,10.0,West,8.1,-,0.00,Rain,Light Rain,270,2013-02-08 14:02:00
9:46 AM,37.4,33.8,87,29.83,7.0,West,8.1,-,0.00,,Overcast,270,2013-02-08 14:46:00
9:53 AM,37.0,34.0,89,29.85,5.0,West,8.1,-,0.00,,Overcast,280,2013-02-08 14:53:00
10:22 AM,35.6,33.8,93,29.85,2.5,West,8.1,-,N/A,,Overcast,280,2013-02-08 15:22:00
10:38 AM,35.6,32.0,87,29.86,3.0,West,13.8,19.6,N/A,,Overcast,270,2013-02-08 15:38:00
10:53 AM,35.1,30.9,85,29.90,3.0,West,8.1,23.0,N/A,,Overcast,280,2013-02-08 15:53:00
12:15 PM,33.8,28.4,81,29.91,7.0,WNW,16.1,25.3,N/A,,Overcast,300,2013-02-08 17:15:00
12:28 PM,33.8,28.4,81,29.91,9.0,WNW,13.8,23.0,N/A,,Overcast,290,2013-02-08 17:28:00
12:53 PM,33.1,26.1,75,29.94,10.0,WNW,16.1,27.6,N/A,,Overcast,290,2013-02-08 17:53:00
1:53 PM,32.0,24.1,73,29.99,10.0,NW,9.2,21.9,N/A,,Overcast,310,2013-02-08 18:53:00
2:53 PM,30.0,23.0,75,30.02,10.0,NW,13.8,32.2,N/A,,Overcast,310,2013-02-08 19:53:00
3:53 PM,30.0,21.9,72,30.05,10.0,WNW,17.3,26.5,N/A,,Overcast,300,2013-02-08 20:53:00
4:53 PM,28.9,21.0,72,30.09,10.0,NW,15.0,32.2,N/A,,Overcast,310,2013-02-08 21:53:00
5:53 PM,28.9,21.9,75,30.12,5.0,NW,13.8,18.4,N/A,,Haze,310,2013-02-08 22:53:00
6:53 PM,28.0,21.0,75,30.15,6.0,NW,12.7,-,0.00,,Haze,310,2013-02-08 23:53:00
7:10 PM,28.4,21.2,74,30.14,7.0,WNW,13.8,-,N/A,,Overcast,300,2013-02-09 00:10:00
7:53 PM,27.0,19.0,72,30.19,10.0,NW,17.3,27.6,N/A,,Overcast,320,2013-02-09 00:53:00
8:53 PM,27.0,19.0,72,30.22,8.0,NW,11.5,25.3,0.00,,Overcast,320,2013-02-09 01:53:00
9:53 PM,27.0,18.0,69,30.24,7.0,NW,15.0,24.2,0.00,Snow,Light Snow,320,2013-02-09 02:53:00
10:32 PM,26.6,17.6,69,30.22,10.0,NW,13.8,20.7,0.00,,Overcast,320,2013-02-09 03:32:00
10:46 PM,26.6,17.6,69,30.23,8.0,NW,11.5,26.5,0.00,Snow,Light Snow,310,2013-02-09 03:46:00
10:53 PM,27.0,18.0,69,30.26,8.0,NW,15.0,21.9,0.00,,Overcast,320,2013-02-09 03:53:00
11:53 PM,26.1,18.0,71,30.27,5.0,NW,9.2,20.7,0.00,Snow,Light Snow,310,2013-02-09 04:53:00